Time,TemperatureF,DewpointF,PressureIn,WindDirection,WindDirectionDegrees,WindSpeedMPH,WindSpeedGustMPH,Humidity,HourlyPrecipIn,Conditions,Clouds,dailyrainin,SoftwareType,DateUTC
2013-03-07 00:02:00,31.4,28.0,30.17,WNW,284,0.0,-999.0,86,-99.99,,,0.12,weatherlink.com 1.10,2013-03-07 05:02:00,
2013-03-07 00:17:00,31.2,28.0,30.17,WNW,284,0.0,-999.0,86,-99.99,,,0.00,weatherlink.com 1.10,2013-03-07 05:17:00,
2013-03-07 00:32:00,31.2,28.0,30.17,WNW,284,0.0,-999.0,86,-99.99,,,0.00,weatherlink.com 1.10,2013-03-07 05:32:00,
2013-03-07 00:47:00,31.2,28.0,30.17,WNW,284,0.0,-999.0,86,-99.99,,,0.00,weatherlink.com 1.10,2013-03-07 05:47:00,
2013-03-07 01:02:00,31.2,28.0,30.18,WNW,284,0.0,-999.0,86,-99.99,,,0.00,weatherlink.com 1.10,2013-03-07 06:02:00,
2013-03-07 01:17:00,31.1,28.0,30.18,WNW,284,0.0,-999.0,87,-99.99,,,0.00,weatherlink.com 1.10,2013-03-07 06:17:00,
2013-03-07 01:32:00,31.3,28.0,30.18,West,280,0.0,-999.0,87,-99.99,,,0.00,weatherlink.com 1.10,2013-03-07 06:32:00,
2013-03-07 01:47:00,31.6,28.0,30.19,West,280,0.0,-999.0,87,-99.99,,,0.00,weatherlink.com 1.10,2013-03-07 06:47:00,
2013-03-07 02:02:00,31.8,28.0,30.19,West,280,2.0,-999.0,87,-99.99,,,0.00,weatherlink.com 1.10,2013-03-07 07:02:00,
2013-03-07 02:17:00,32.0,29.0,30.19,NW,304,0.0,-999.0,87,-99.99,,,0.00,weatherlink.com 1.10,2013-03-07 07:17:00,
2013-03-07 02:32:00,32.0,29.0,30.19,WNW,292,0.0,-999.0,87,-99.99,,,0.00,weatherlink.com 1.10,2013-03-07 07:32:00,
2013-03-07 03:02:00,32.2,29.0,30.18,WNW,292,0.0,-999.0,87,-99.99,,,0.00,weatherlink.com 1.10,2013-03-07 08:02:00,
2013-03-07 03:17:00,32.2,29.0,30.19,WNW,292,3.0,-999.0,87,-99.99,,,0.00,weatherlink.com 1.10,2013-03-07 08:17:00,
2013-03-07 03:32:00,32.2,29.0,30.18,WNW,292,0.0,-999.0,87,-99.99,,,0.00,weatherlink.com 1.10,2013-03-07 08:32:00,
2013-03-07 03:47:00,32.2,29.0,30.19,WNW,291,0.0,-999.0,87,-99.99,,,0.00,weatherlink.com 1.10,2013-03-07 08:47:00,
2013-03-07 04:17:00,32.0,29.0,30.20,WNW,289,0.0,-999.0,87,-99.99,,,0.00,weatherlink.com 1.10,2013-03-07 09:17:00,
2013-03-07 04:32:00,32.0,29.0,30.20,WNW,289,3.0,-999.0,87,-99.99,,,0.00,weatherlink.com 1.10,2013-03-07 09:32:00,
2013-03-07 04:47:00,32.0,29.0,30.21,WNW,301,0.0,-999.0,87,-99.99,,,0.00,weatherlink.com 1.10,2013-03-07 09:47:00,
2013-03-07 05:02:00,32.1,29.0,30.21,WNW,300,2.0,-999.0,87,-99.99,,,0.00,weatherlink.com 1.10,2013-03-07 10:02:00,
2013-03-07 05:17:00,32.1,29.0,30.21,WNW,298,0.0,-999.0,87,-99.99,,,0.00,weatherlink.com 1.10,2013-03-07 10:17:00,
2013-03-07 05:32:00,32.1,29.0,30.22,WNW,294,0.0,-999.0,87,-99.99,,,0.00,weatherlink.com 1.10,2013-03-07 10:32:00,
2013-03-07 05:47:00,32.1,29.0,30.22,WNW,300,0.0,-999.0,87,-99.99,,,0.00,weatherlink.com 1.10,2013-03-07 10:47:00,
2013-03-07 06:02:00,32.1,29.0,30.23,WNW,287,2.0,-999.0,87,-99.99,,,0.00,weatherlink.com 1.10,2013-03-07 11:02:00,
2013-03-07 06:17:00,32.0,29.0,30.23,WNW,287,0.0,-999.0,87,-99.99,,,0.00,weatherlink.com 1.10,2013-03-07 11:17:00,
2013-03-07 06:32:00,32.0,29.0,30.23,WNW,287,0.0,-999.0,87,-99.99,,,0.00,weatherlink.com 1.10,2013-03-07 11:32:00,
2013-03-07 06:47:00,32.0,29.0,30.24,NW,306,0.0,-999.0,87,-99.99,,,0.00,weatherlink.com 1.10,2013-03-07 11:47:00,
2013-03-07 07:02:00,31.9,29.0,30.24,NW,306,3.0,-999.0,88,-99.99,,,0.00,weatherlink.com 1.10,2013-03-07 12:02:00,
2013-03-07 07:17:00,31.9,29.0,30.25,NW,304,0.0,-999.0,88,-99.99,,,0.00,weatherlink.com 1.10,2013-03-07 12:17:00,
2013-03-07 07:32:00,32.0,29.0,30.25,NW,304,0.0,-999.0,88,-99.99,,,0.00,weatherlink.com 1.10,2013-03-07 12:32:00,
2013-03-07 07:47:00,32.1,29.0,30.25,WNW,303,0.0,-999.0,88,-99.99,,,0.00,weatherlink.com 1.10,2013-03-07 12:47:00,
2013-03-07 08:02:00,32.3,29.0,30.26,WNW,302,1.0,-999.0,88,-99.99,,,0.00,weatherlink.com 1.10,2013-03-07 13:02:00,
2013-03-07 08:17:00,32.4,29.0,30.26,WNW,302,0.0,-999.0,88,-99.99,,,0.00,weatherlink.com 1.10,2013-03-07 13:17:00,
2013-03-07 08:32:00,32.7,30.0,30.27,WNW,297,2.0,-999.0,89,-99.99,,,0.00,weatherlink.com 1.10,2013-03-07 13:32:00,
2013-03-07 08:47:00,33.2,30.0,30.27,NW,309,0.0,-999.0,89,-99.99,,,0.00,weatherlink.com 1.10,2013-03-07 13:47:00,
2013-03-07 09:02:00,33.4,31.0,30.28,NNW,344,0.0,-999.0,89,-99.99,,,0.00,weatherlink.com 1.10,2013-03-07 14:02:00,
2013-03-07 09:17:00,33.7,31.0,30.29,NW,318,2.0,-999.0,89,-99.99,,,0.00,weatherlink.com 1.10,2013-03-07 14:17:00,
2013-03-07 09:32:00,34.0,31.0,30.29,NNW,338,1.0,-999.0,89,-99.99,,,0.00,weatherlink.com 1.10,2013-03-07 14:32:00,
2013-03-07 09:47:00,34.2,31.0,30.28,NW,315,1.0,-999.0,89,-99.99,,,0.00,weatherlink.com 1.10,2013-03-07 14:47:00,
2013-03-07 10:02:00,34.5,32.0,30.29,NW,326,0.0,-999.0,89,-99.99,,,0.00,weatherlink.com 1.10,2013-03-07 15:02:00,
2013-03-07 10:17:00,34.8,32.0,30.29,NW,325,0.0,-999.0,88,-99.99,,,0.00,weatherlink.com 1.10,2013-03-07 15:17:00,
2013-03-07 10:32:00,34.8,32.0,30.28,NW,313,2.0,-999.0,88,-99.99,,,0.00,weatherlink.com 1.10,2013-03-07 15:32:00,
2013-03-07 10:47:00,35.3,32.0,30.28,NW,314,4.0,-999.0,88,-99.99,,,0.00,weatherlink.com 1.10,2013-03-07 15:47:00,
2013-03-07 11:02:00,35.4,32.0,30.29,NNW,333,2.0,-999.0,88,-99.99,,,0.00,weatherlink.com 1.10,2013-03-07 16:02:00,
2013-03-07 11:17:00,35.5,32.0,30.30,NNW,333,7.0,-999.0,88,-99.99,,,0.00,weatherlink.com 1.10,2013-03-07 16:17:00,
2013-03-07 11:32:00,35.6,32.0,30.29,NW,310,7.0,-999.0,87,-99.99,,,0.00,weatherlink.com 1.10,2013-03-07 16:32:00,
2013-03-07 11:47:00,36.1,33.0,30.29,NNW,332,4.0,-999.0,87,-99.99,,,0.00,weatherlink.com 1.10,2013-03-07 16:47:00,
2013-03-07 12:02:00,36.2,33.0,30.29,NW,311,1.0,-999.0,87,-99.99,,,0.00,weatherlink.com 1.10,2013-03-07 17:02:00,
2013-03-07 12:17:00,36.3,33.0,30.29,NW,309,0.0,-999.0,86,-99.99,,,0.00,weatherlink.com 1.10,2013-03-07 17:17:00,
2013-03-07 12:32:00,36.8,33.0,30.29,NW,319,3.0,-999.0,86,-99.99,,,0.00,weatherlink.com 1.10,2013-03-07 17:32:00,
2013-03-07 12:47:00,37.1,33.0,30.29,NW,306,0.0,-999.0,86,-99.99,,,0.00,weatherlink.com 1.10,2013-03-07 17:47:00,
2013-03-07 13:02:00,37.4,33.0,30.29,NNW,333,1.0,-999.0,85,-99.99,,,0.00,weatherlink.com 1.10,2013-03-07 18:02:00,
2013-03-07 13:17:00,37.8,34.0,30.29,NNE,13,1.0,-999.0,85,-99.99,,,0.00,weatherlink.com 1.10,2013-03-07 18:17:00,
2013-03-07 13:32:00,38.1,34.0,30.29,NNW,348,7.0,-999.0,84,-99.99,,,0.00,weatherlink.com 1.10,2013-03-07 18:32:00,
2013-03-07 13:47:00,37.9,34.0,30.28,NNW,346,4.0,-999.0,84,-99.99,,,0.00,weatherlink.com 1.10,2013-03-07 18:47:00,
2013-03-07 14:02:00,38.3,34.0,30.28,NNW,344,3.0,-999.0,83,-99.99,,,0.00,weatherlink.com 1.10,2013-03-07 19:02:00,
2013-03-07 14:17:00,38.1,33.0,30.27,NW,309,3.0,-999.0,83,-99.99,,,0.00,weatherlink.com 1.10,2013-03-07 19:17:00,
2013-03-07 14:33:00,38.1,33.0,30.27,WNW,300,0.0,-999.0,82,-99.99,,,0.00,weatherlink.com 1.10,2013-03-07 19:33:00,
2013-03-07 14:47:00,38.8,34.0,30.28,NW,325,6.0,-999.0,82,-99.99,,,0.00,weatherlink.com 1.10,2013-03-07 19:47:00,
2013-03-07 15:02:00,38.6,33.0,30.28,NNW,346,0.0,-999.0,81,-99.99,,,0.00,weatherlink.com 1.10,2013-03-07 20:02:00,
2013-03-07 15:17:00,38.8,33.0,30.28,NW,325,7.0,-999.0,81,-99.99,,,0.00,weatherlink.com 1.10,2013-03-07 20:17:00,
2013-03-07 15:32:00,38.2,33.0,30.29,NNW,331,7.0,-999.0,80,-99.99,,,0.00,weatherlink.com 1.10,2013-03-07 20:32:00,
2013-03-07 15:47:00,39.1,33.0,30.28,NNW,330,2.0,-999.0,80,-99.99,,,0.00,weatherlink.com 1.10,2013-03-07 20:47:00,
2013-03-07 16:02:00,38.9,33.0,30.29,NNW,331,1.0,-999.0,78,-99.99,,,0.00,weatherlink.com 1.10,2013-03-07 21:02:00,
2013-03-07 16:17:00,38.0,31.0,30.29,NNW,333,3.0,-999.0,77,-99.99,,,0.00,weatherlink.com 1.10,2013-03-07 21:17:00,
2013-03-07 16:32:00,37.6,31.0,30.30,NW,307,6.0,-999.0,77,-99.99,,,0.00,weatherlink.com 1.10,2013-03-07 21:32:00,
2013-03-07 16:47:00,37.4,31.0,30.30,NW,316,7.0,-999.0,77,-99.99,,,0.00,weatherlink.com 1.10,2013-03-07 21:47:00,
2013-03-07 17:02:00,37.3,31.0,30.30,NW,319,0.0,-999.0,77,-99.99,,,0.00,weatherlink.com 1.10,2013-03-07 22:02:00,
2013-03-07 17:17:00,37.0,30.0,30.30,NW,321,1.0,-999.0,77,-99.99,,,0.00,weatherlink.com 1.10,2013-03-07 22:17:00,
2013-03-07 17:32:00,36.6,30.0,30.30,NW,321,1.0,-999.0,77,-99.99,,,0.00,weatherlink.com 1.10,2013-03-07 22:32:00,
2013-03-07 17:47:00,36.2,30.0,30.30,NW,324,3.0,-999.0,77,-99.99,,,0.00,weatherlink.com 1.10,2013-03-07 22:47:00,
2013-03-07 18:02:00,35.9,29.0,30.30,NNW,347,0.0,-999.0,77,-99.99,,,0.00,weatherlink.com 1.10,2013-03-07 23:02:00,
2013-03-07 18:17:00,35.7,29.0,30.31,North,355,0.0,-999.0,77,-99.99,,,0.00,weatherlink.com 1.10,2013-03-07 23:17:00,
2013-03-07 18:32:00,35.5,29.0,30.32,North,350,0.0,-999.0,78,-99.99,,,0.00,weatherlink.com 1.10,2013-03-07 23:32:00,
2013-03-07 18:47:00,35.1,29.0,30.31,North,350,0.0,-999.0,78,-99.99,,,0.00,weatherlink.com 1.10,2013-03-07 23:47:00,
2013-03-07 19:02:00,34.9,29.0,30.32,North,349,0.0,-999.0,78,-99.99,,,0.00,weatherlink.com 1.10,2013-03-08 00:02:00,
2013-03-07 19:17:00,34.7,29.0,30.32,North,349,0.0,-999.0,78,-99.99,,,0.00,weatherlink.com 1.10,2013-03-08 00:17:00,
2013-03-07 19:32:00,34.5,28.0,30.33,North,349,0.0,-999.0,78,-99.99,,,0.00,weatherlink.com 1.10,2013-03-08 00:32:00,
2013-03-07 19:47:00,34.4,28.0,30.33,NW,322,0.0,-999.0,78,-99.99,,,0.00,weatherlink.com 1.10,2013-03-08 00:47:00,
2013-03-07 20:02:00,34.4,28.0,30.33,North,350,1.0,-999.0,78,-99.99,,,0.00,weatherlink.com 1.10,2013-03-08 01:02:00,
2013-03-07 20:17:00,34.6,28.0,30.33,North,355,2.0,-999.0,77,-99.99,,,0.00,weatherlink.com 1.10,2013-03-08 01:17:00,
2013-03-07 20:32:00,34.8,28.0,30.33,NNW,346,0.0,-999.0,77,-99.99,,,0.00,weatherlink.com 1.10,2013-03-08 01:32:00,
2013-03-07 20:47:00,34.5,28.0,30.34,NNW,346,0.0,-999.0,76,-99.99,,,0.00,weatherlink.com 1.10,2013-03-08 01:47:00,
2013-03-07 21:02:00,34.4,28.0,30.34,NNW,345,0.0,-999.0,76,-99.99,,,0.00,weatherlink.com 1.10,2013-03-08 02:02:00,
2013-03-07 21:17:00,34.2,27.0,30.34,NNW,343,0.0,-999.0,75,-99.99,,,0.00,weatherlink.com 1.10,2013-03-08 02:17:00,
2013-03-07 21:32:00,33.9,27.0,30.34,NNW,343,0.0,-999.0,76,-99.99,,,0.00,weatherlink.com 1.10,2013-03-08 02:32:00,
2013-03-07 21:47:00,33.7,27.0,30.33,NNW,343,0.0,-999.0,76,-99.99,,,0.00,weatherlink.com 1.10,2013-03-08 02:47:00,
2013-03-07 22:02:00,33.6,27.0,30.34,NNW,343,0.0,-999.0,76,-99.99,,,0.00,weatherlink.com 1.10,2013-03-08 03:02:00,
2013-03-07 22:17:00,33.5,27.0,30.34,NNW,343,0.0,-999.0,76,-99.99,,,0.00,weatherlink.com 1.10,2013-03-08 03:17:00,
2013-03-07 22:47:00,33.6,27.0,30.33,North,5,0.0,-999.0,76,-99.99,,,0.00,weatherlink.com 1.10,2013-03-08 03:47:00,
2013-03-07 23:02:00,33.7,27.0,30.34,NNE,31,0.0,-999.0,75,-99.99,,,0.00,weatherlink.com 1.10,2013-03-08 04:02:00,
2013-03-07 23:17:00,33.4,26.0,30.34,NNE,31,0.0,-999.0,75,-99.99,,,0.00,weatherlink.com 1.10,2013-03-08 04:17:00,
2013-03-07 23:32:00,33.2,26.0,30.34,NNE,31,0.0,-999.0,75,-99.99,,,0.00,weatherlink.com 1.10,2013-03-08 04:32:00,
2013-03-07 23:47:00,33.0,26.0,30.34,NNE,31,0.0,-999.0,75,-99.99,,,0.00,weatherlink.com 1.10,2013-03-08 04:47:00,